RH
100 97 96 98 100 100 100 99 100 100 98 91 96 91 87 98 98 94 98 100 98 99 98 97 94 93 87
99 98 98 99 99 100 99 95 98 99 98 92 99 97 98 99 96 96 99 99 98 97 95 91 85 80 77
100 99 99 100 100 99 99 99 96 95 96 98 99 99 99 98 98 99 97 92 88 86 83 82 81 82 80
99 99 99 99 99 100 99 99 98 95 95 98 95 98 96 90 88 84 83 84 84 86 89 87 85 83 82
94 96 99 96 99 92 95 84 74 71 68 68 70 68 64 61 60 58 56 72 80 82 82 83 83 81 79
86 83 80 76 75 78 78 72 67 65 64 59 58 53 46 40 37 37 41 66 77 81 86 86 82 81 80
69 77 76 75 74 74 75 75 73 71 74 66 56 47 53 50 53 71 88 90 91 90 90 88 86 84 84
78 77 78 82 84 83 83 85 77 73 72 86 72 65 60 59 58 58 60 87 92 93 91 92 92 93 92
79 77 82 78 83 81 84 84 83 74 78 81 87 81 67 62 59 68 95 96 98 97 97 95 96 95 93
65 56 58 63 59 70 79 72 79 79 85 89 91 88 82 74 74 72 88 92 75 67 69 96 94 95 88
56 59 64 67 76 83 86 89 90 84 88 98 92 85 86 86 83 73 70 68 69 67 64 62 63 92 93
68 74 78 86 91 91 90 91 94 96 93 95 98 96 92 95 91 83 79 73 71 61 62 69 72 82 98
83 82 84 89 92 93 99 95 98 96 94 95 95 95 100 100 98 97 95 87 84 81 86 84 80 75 73
87 93 92 92 96 97 94 95 92 90 87 86 86 91 98 99 100 100 100 98 84 85 87 99 100 96 85
93 90 90 91 90 92 91 90 95 93 92 79 80 87 89 92 100 99 92 97 91 88 99 100 95 99 100
90 88 87 87 89 92 88 93 99 94 94 85 84 90 90 78 76 79 86 97 91 94 93 100 97 93 90
89 92 88 86 93 88 90 94 96 94 84 86 91 100 97 95 79 79 87 87 88 90 88 95 100 80 87
Wind_Speed
5 9 10 8 6 3 2 3 5 6 8 6 13 16 18 16 15 15 14 15 11 8 11 14 15 15 15
5 8 7 6 3 4 5 5 8 7 7 9 11 12 12 11 12 15 14 14 13 11 12 13 15 15 16
4 6 5 7 5 4 4 4 5 8 10 11 12 11 12 14 13 12 11 9 9 11 12 13 14 13 15
4 5 6 6 5 5 4 4 3 4 6 7 8 11 9 7 8 11 12 11 11 11 12 13 14 15 15
5 4 4 5 5 5 3 3 2 1 3 4 7 9 11 13 16 18 19 17 15 13 12 13 14 14 14
5 4 4 5 4 4 2 2 3 2 5 6 9 14 16 17 18 17 17 14 13 13 12 12 14 14 15
5 4 4 5 5 5 4 3 4 7 9 10 10 14 7 8 11 11 10 9 10 11 12 12 13 14 13
5 5 5 5 6 6 6 7 10 8 6 4 6 11 9 8 9 10 11 11 11 11 10 10 11 14 15
5 5 5 5 8 8 7 9 5 3 5 5 6 15 12 7 6 3 2 6 8 8 8 11 12 14 18
7 7 8 7 6 7 8 7 5 4 5 7 8 11 8 4 4 2 8 9 9 9 12 11 15 18 22
7 4 2 2 2 1 2 4 4 6 7 6 7 10 7 9 15 14 14 15 17 20 19 22 21 15 19
3 3 3 2 3 5 7 7 9 12 13 13 10 10 14 15 12 11 20 25 25 24 19 17 22 21 16
3 4 5 6 8 9 9 9 12 13 13 13 16 19 19 18 18 22 19 14 28 24 12 10 14 18 27
6 6 8 9 9 10 13 14 16 17 12 11 13 15 20 23 22 27 22 14 21 27 29 25 24 24 24
7 8 10 11 13 13 14 15 17 19 22 19 13 14 18 23 25 28 32 28 30 30 23 23 25 23 23
8 11 13 15 15 15 14 15 16 21 26 25 21 18 16 17 20 30 29 28 26 24 25 23 25 27 28
13 13 14 15 14 16 15 15 18 22 27 24 20 16 5 7 15 19 28 29 28 28 28 28 27 36 29
Wind_Direction
309 329 331 336 313 323 250 246 229 193 175 213 255 263 261 251 259 260 266 258 241 259 262 270 272 271 272
335 348 346 344 333 304 280 246 248 259 240 230 216 225 241 241 246 255 258 263 266 263 258 263 267 269 271
11 6 359 0 353 330 300 287 262 257 253 247 252 266 263 259 259 260 253 250 253 263 264 263 265 266 268
46 34 22 5 15 4 355 345 322 297 277 256 252 243 243 238 235 242 247 251 252 248 255 261 265 265 265
50 43 42 26 16 3 353 353 360 303 267 248 248 253 253 256 259 260 259 258 257 257 259 262 259 260 265
42 39 25 15 8 8 24 3 343 348 332 298 288 277 277 268 265 262 255 254 252 251 250 251 256 262 265
26 23 9 8 5 3 354 331 293 300 310 295 295 294 294 271 256 248 248 248 248 249 251 257 263 265 266
28 23 4 350 330 324 328 321 309 297 302 256 315 316 317 288 262 260 257 248 247 252 255 248 258 268 272
324 316 302 293 314 300 312 328 334 327 329 314 339 333 321 313 279 242 169 184 199 216 255 269 273 277 273
314 296 285 284 287 280 285 297 302 319 9 350 349 359 331 349 27 281 240 228 234 254 281 277 288 283 279
328 334 326 301 281 298 315 311 301 270 319 350 307 312 298 301 315 304 292 272 271 276 279 286 283 275 276
347 352 344 323 287 290 294 291 291 284 286 288 281 287 288 290 284 291 297 296 295 288 286 279 278 274 257
320 325 322 310 306 309 307 297 289 284 278 279 279 281 280 270 276 286 302 298 293 291 293 294 288 275 281
300 301 314 314 307 308 306 308 303 301 298 291 281 274 275 274 275 280 282 274 283 285 292 292 289 285 277
285 300 305 304 303 304 302 304 293 299 302 307 303 291 277 271 272 271 276 274 279 287 284 277 284 276 271
281 285 289 295 298 299 298 295 289 290 296 304 312 315 306 292 268 267 272 273 284 284 285 270 276 279 282
276 279 284 288 287 289 291 289 284 291 298 303 301 291 272 271 278 269 266 274 283 284 281 272 270 284 283